Flag for Germany Weather past 2 weeks in Heinsberg, North Rhine-Westphalia, Germany

Now
52 °F

Scattered showers. Passing clouds.


Feels Like: 47 °F
Forecast: 48 / 61 °F
Wind: 13 mph from Southwest

Location: Geilenkirchen Airport

Current Time: May 6, 2015 at 9:32:57 PM

Latest Report: May 6, 2015 at 8:50 PM


Visibility: N/A

Pressure: 29.92 "Hg

Humidity: 77%

Dew point: 45 °F

Location of HeinsbergLocation

Historic Weather in Heinsberg — Graph

°F

Heinsberg temperature yesterday

Maximum temperature yesterday: 73 °F (at 11:50 AM)
Minimum temperature yesterday: 55 °F (at 10:50 PM)
Average temperature yesterday: 64 °F

Past Weeks' High & Low Weather Summary

 TemperatureHumidityPressure
High73 °F (May 5, 11:50 AM)100% (Apr 22, 5:50 AM)30.48 "Hg (Apr 22, 5:50 AM)
Low32 °F (Apr 28, 6:50 AM)31% (Apr 24, 2:50 PM)29.42 "Hg (May 5, 3:50 AM)
Average53 °F69%29.93 "Hg
* Reported Apr 21 7:50 PM — May 6 7:50 PM, Heinsberg, Weather by CustomWeather, © 2015

Note: Actual official high and low records may vary slightly from our data, if they occured in-between our weather recording intervals... More about our weather records

Advertising

Heinsberg weather history for previous 24 hours

 ConditionsComfort  
Time TempWeatherWind HumidityBarometerVisibility
7:50 PM
Wed, May 6
59 °FPassing clouds.14 mph55%29.89 "HgN/A
6:50 PM61 °FPassing clouds.14 mph52%29.89 "HgN/A
5:50 PM57 °FThundershowers. Scattered clouds.13 mph63%29.86 "HgN/A
4:50 PM59 °FPassing clouds.15 mph59%29.86 "HgN/A
3:50 PM57 °FScattered clouds.21 mph51%29.86 "HgN/A
2:50 PM57 °FPassing clouds.14 mph72%29.89 "HgN/A
1:50 PM52 °FSprinkles. Broken clouds.15 mph88%29.86 "HgN/A
12:50 PM59 °FBroken clouds.17 mph48%29.86 "HgN/A
11:50 AM59 °FPartly sunny.16 mph51%29.89 "HgN/A
10:50 AM57 °FScattered clouds.18 mph55%29.86 "HgN/A
9:50 AM57 °FPassing clouds.14 mph55%29.89 "HgN/A
8:50 AM54 °FSunny.14 mph63%29.89 "Hg10 mi
7:50 AM54 °FSunny.10 mph63%29.86 "Hg10 mi
6:50 AM52 °FClear.5 mph72%29.86 "Hg10 mi
5:50 AM52 °FClear.5 mph72%29.83 "Hg10 mi
4:50 AM52 °FClear.6 mph72%29.83 "Hg10 mi
3:50 AM54 °FClear.7 mph67%29.83 "Hg10 mi
2:50 AM55 °FClear.7 mph63%29.83 "Hg10 mi
1:50 AM55 °FClear.8 mph67%29.83 "Hg10 mi
12:50 AM57 °FClear.7 mph63%29.83 "Hg10 mi
11:50 PM
Tue, May 5
57 °FClear.6 mph63%29.80 "Hg10 mi
10:50 PM55 °FClear.5 mph67%29.80 "Hg10 mi
9:50 PM57 °FSunny.3 mph59%29.80 "Hg10 mi
Weather by CustomWeather, © 2015

See weather overviewHow to use our weather pages